TimeCDT,TemperatureF,Dew PointF,Humidity,Sea Level PressureIn,VisibilityMPH,Wind Direction,Wind SpeedMPH,Gust SpeedMPH,PrecipitationIn,Events,Conditions,WindDirDegrees,DateUTC
12:15 AM,68.0,66.2,94,30.20,10.0,Calm,Calm,-,N/A,,Clear,0,2013-06-24 05:15:00
12:35 AM,68.0,66.0,93,30.19,10.0,Calm,Calm,-,N/A,,Scattered Clouds,0,2013-06-24 05:35:00
12:55 AM,67.6,65.8,94,30.19,10.0,Calm,Calm,-,N/A,,Scattered Clouds,0,2013-06-24 05:55:00
1:15 AM,67.1,65.3,94,30.19,10.0,Calm,Calm,-,N/A,,Clear,0,2013-06-24 06:15:00
1:35 AM,66.9,65.1,94,30.19,10.0,Calm,Calm,-,N/A,,Scattered Clouds,0,2013-06-24 06:35:00
1:55 AM,66.7,64.6,93,30.19,10.0,Calm,Calm,-,N/A,,Scattered Clouds,0,2013-06-24 06:55:00
2:15 AM,65.8,64.4,95,30.18,10.0,Calm,Calm,-,N/A,,Clear,0,2013-06-24 07:15:00
2:35 AM,65.5,64.4,96,30.18,10.0,Calm,Calm,-,N/A,,Clear,0,2013-06-24 07:35:00
2:55 AM,65.3,63.9,95,30.19,10.0,Calm,Calm,-,N/A,,Clear,0,2013-06-24 07:55:00
3:15 AM,65.3,63.9,95,30.19,10.0,Calm,Calm,-,N/A,,Clear,0,2013-06-24 08:15:00
3:35 AM,64.9,63.7,96,30.19,10.0,Calm,Calm,-,N/A,,Mostly Cloudy,0,2013-06-24 08:35:00
3:55 AM,64.9,63.5,95,30.19,10.0,Calm,Calm,-,N/A,,Mostly Cloudy,0,2013-06-24 08:55:00
4:15 AM,64.6,63.5,96,30.19,10.0,Calm,Calm,-,N/A,,Scattered Clouds,0,2013-06-24 09:15:00
4:35 AM,64.4,63.5,97,30.19,10.0,Calm,Calm,-,N/A,,Scattered Clouds,0,2013-06-24 09:35:00
4:55 AM,64.2,63.1,96,30.19,10.0,Calm,Calm,-,N/A,,Clear,0,2013-06-24 09:55:00
5:15 AM,64.2,63.0,96,30.19,10.0,Calm,Calm,-,N/A,,Clear,0,2013-06-24 10:15:00
5:35 AM,63.9,63.0,97,30.20,10.0,Calm,Calm,-,N/A,,Clear,0,2013-06-24 10:35:00
5:55 AM,64.4,63.1,96,30.21,10.0,Calm,Calm,-,N/A,,Clear,0,2013-06-24 10:55:00
6:15 AM,64.9,63.5,95,30.21,10.0,Calm,Calm,-,N/A,,Clear,0,2013-06-24 11:15:00
6:35 AM,66.2,64.0,93,30.21,10.0,Calm,Calm,-,N/A,,Clear,0,2013-06-24 11:35:00
6:55 AM,66.6,64.2,92,30.22,10.0,Calm,Calm,-,N/A,,Scattered Clouds,0,2013-06-24 11:55:00
7:15 AM,67.1,64.4,91,30.22,10.0,Calm,Calm,-,N/A,,Mostly Cloudy,0,2013-06-24 12:15:00
7:35 AM,68.9,65.5,89,30.23,10.0,Calm,Calm,-,N/A,,Scattered Clouds,0,2013-06-24 12:35:00
7:55 AM,70.5,66.2,86,30.23,10.0,Calm,Calm,-,N/A,,Scattered Clouds,0,2013-06-24 12:55:00
8:15 AM,70.9,66.4,86,30.24,10.0,Calm,Calm,-,N/A,,Mostly Cloudy,0,2013-06-24 13:15:00
8:35 AM,72.1,67.1,84,30.24,10.0,Calm,Calm,-,N/A,,Mostly Cloudy,0,2013-06-24 13:35:00
8:55 AM,74.7,68.5,81,30.24,10.0,Calm,Calm,-,N/A,,Scattered Clouds,0,2013-06-24 13:55:00
9:15 AM,77.0,69.3,77,30.24,10.0,Calm,Calm,-,N/A,,Scattered Clouds,0,2013-06-24 14:15:00
9:35 AM,78.6,69.4,73,30.24,10.0,South,5.8,-,N/A,,Scattered Clouds,170,2013-06-24 14:35:00
9:55 AM,79.9,69.8,71,30.24,10.0,South,5.8,-,N/A,,Mostly Cloudy,170,2013-06-24 14:55:00
10:15 AM,79.9,69.6,71,30.23,10.0,South,8.1,-,N/A,,Overcast,170,2013-06-24 15:15:00
10:35 AM,81.0,68.9,67,30.23,10.0,South,6.9,-,N/A,,Mostly Cloudy,170,2013-06-24 15:35:00
10:55 AM,82.2,68.7,64,30.22,10.0,South,8.1,-,N/A,,Scattered Clouds,180,2013-06-24 15:55:00
11:15 AM,83.1,68.7,62,30.22,10.0,South,6.9,-,N/A,,Scattered Clouds,170,2013-06-24 16:15:00
11:35 AM,83.8,68.4,59,30.21,10.0,South,6.9,-,N/A,,Clear,180,2013-06-24 16:35:00
11:55 AM,83.7,68.4,60,30.20,10.0,South,8.1,-,N/A,,Clear,190,2013-06-24 16:55:00
12:15 PM,84.0,68.0,58,30.19,10.0,South,9.2,-,N/A,,Scattered Clouds,180,2013-06-24 17:15:00
12:35 PM,83.7,67.3,58,30.18,10.0,South,5.8,-,N/A,,Overcast,190,2013-06-24 17:35:00
12:55 PM,81.5,72.0,73,30.18,7.0,NW,11.5,-,N/A,Rain,Light Rain,310,2013-06-24 17:55:00
1:15 PM,76.8,72.0,85,30.17,10.0,West,3.5,-,0.01,Rain,Light Rain,280,2013-06-24 18:15:00
1:35 PM,78.1,72.1,82,30.17,10.0,Calm,Calm,-,0.01,,Mostly Cloudy,0,2013-06-24 18:35:00
1:55 PM,81.5,72.5,74,30.17,10.0,NW,3.5,-,0.01,,Scattered Clouds,310,2013-06-24 18:55:00
2:15 PM,84.2,68.4,59,30.15,10.0,SSE,4.6,-,N/A,,Scattered Clouds,150,2013-06-24 19:15:00
2:35 PM,85.6,68.5,56,30.14,10.0,SW,8.1,-,N/A,,Mostly Cloudy,220,2013-06-24 19:35:00
2:55 PM,85.1,66.4,53,30.14,10.0,WSW,3.5,-,N/A,,Scattered Clouds,240,2013-06-24 19:55:00
3:15 PM,86.0,65.3,50,30.14,10.0,Calm,Calm,-,N/A,,Clear,0,2013-06-24 20:15:00
3:35 PM,85.8,62.1,45,30.13,10.0,SSW,3.5,-,N/A,,Clear,210,2013-06-24 20:35:00
3:55 PM,86.4,63.9,47,30.13,10.0,West,4.6,-,N/A,,Clear,270,2013-06-24 20:55:00
4:15 PM,86.7,65.1,48,30.13,10.0,WSW,3.5,-,N/A,,Scattered Clouds,240,2013-06-24 21:15:00
4:35 PM,85.6,65.8,51,30.12,10.0,South,6.9,-,N/A,,Scattered Clouds,170,2013-06-24 21:35:00
4:55 PM,85.8,66.4,52,30.12,10.0,WSW,4.6,-,N/A,,Scattered Clouds,240,2013-06-24 21:55:00
5:15 PM,85.1,66.0,53,30.11,10.0,WSW,5.8,-,N/A,,Scattered Clouds,240,2013-06-24 22:15:00
5:35 PM,85.3,66.0,52,30.11,10.0,SSW,4.6,-,N/A,,Clear,210,2013-06-24 22:35:00
5:55 PM,84.7,66.4,54,30.12,10.0,SSW,3.5,-,N/A,,Clear,200,2013-06-24 22:55:00
6:15 PM,84.2,67.1,56,30.11,10.0,South,3.5,-,N/A,,Clear,180,2013-06-24 23:15:00
6:35 PM,82.8,67.1,59,30.11,10.0,SSE,3.5,-,N/A,,Clear,160,2013-06-24 23:35:00
6:55 PM,81.5,68.2,64,30.12,10.0,Calm,Calm,-,N/A,,Clear,0,2013-06-24 23:55:00
7:15 PM,78.8,70.2,75,30.12,10.0,Calm,Calm,-,N/A,,Scattered Clouds,0,2013-06-25 00:15:00
7:35 PM,77.4,69.1,76,30.11,10.0,Calm,Calm,-,N/A,,Clear,0,2013-06-25 00:35:00
7:55 PM,76.3,69.1,78,30.12,10.0,Calm,Calm,-,N/A,,Clear,0,2013-06-25 00:55:00
8:15 PM,76.1,69.1,79,30.13,10.0,Calm,Calm,-,N/A,,Mostly Cloudy,0,2013-06-25 01:15:00
8:35 PM,76.8,68.4,75,30.14,10.0,Calm,Calm,-,N/A,,Overcast,0,2013-06-25 01:35:00
8:55 PM,76.1,68.9,78,30.14,10.0,Calm,Calm,-,N/A,,Overcast,0,2013-06-25 01:55:00
9:15 PM,75.0,69.8,84,30.16,10.0,Calm,Calm,-,N/A,,Overcast,0,2013-06-25 02:15:00
9:35 PM,74.3,69.8,86,30.16,10.0,Calm,Calm,-,N/A,,Overcast,0,2013-06-25 02:35:00
9:55 PM,73.8,69.8,87,30.16,10.0,Calm,Calm,-,N/A,,Overcast,0,2013-06-25 02:55:00
10:15 PM,74.3,69.4,85,30.17,10.0,Calm,Calm,-,N/A,,Overcast,0,2013-06-25 03:15:00
10:35 PM,74.3,69.6,85,30.17,10.0,Calm,Calm,-,N/A,,Overcast,0,2013-06-25 03:35:00
10:55 PM,72.9,69.3,88,30.17,10.0,Calm,Calm,-,N/A,,Scattered Clouds,0,2013-06-25 03:55:00
11:15 PM,72.3,68.9,89,30.17,10.0,Calm,Calm,-,N/A,,Scattered Clouds,0,2013-06-25 04:15:00
11:35 PM,72.5,68.2,86,30.17,10.0,Calm,Calm,-,N/A,,Mostly Cloudy,0,2013-06-25 04:35:00
11:55 PM,71.6,68.0,88,30.16,10.0,Calm,Calm,-,N/A,,Scattered Clouds,0,2013-06-25 04:55:00